Regional Weather Roundup
Issued by NWS

Home | Current Version | Previous Version | Graphics & Text | Print | Product List | Glossary On
Versions: 1 2 3 4 5 6 7 8 9 10 11 12 13 14 15 16 17 18 19 20 21 22 23 24 25 26 27 28 29 30 31 32 33 34 35 36 37 38 39 40 41 42 43 44 45 46 47 48 49 50
341
ASUS44 KMEG 180710
RWRTN
TENNESSEE HOURLY STATE WEATHER ROUNDUP
NATIONAL WEATHER SERVICE MEMPHIS TN
100 AM CST SUN FEB 18 2018

TNZ002-004-019-021-049-052-054-088>092-180800-
WEST TENNESSEE

CITY           SKY/WX    TMP DP  RH WIND       PRES   REMARKS
MEMPHIS INTL   FAIR      39  38  96 NE3       30.26S
NWS MEMPHIS      N/A     36 N/A N/A MISG        N/A
JACKSON        FAIR      35  35 100 CALM      30.27S FOG
DYERSBURG      FOG       34  34 100 CALM      30.28S VSB 1/4
COVINGTON      FOG       34  34 100 CALM      30.28R VSB 1/2
UNION CITY     FOG       34  34 100 CALM      30.28R VSB 0
BOLIVAR        CLEAR     36  36 100 CALM      30.26S FOG
PARIS          FOG       32  32 100 CALM      30.26S VSB 0
HUNTINGDON     FOG       32  32 100 CALM      30.26S VSB 0
LEXINGTON      CLEAR     41  39  93 NE5       30.27S
SELMER         MOCLDY    41  37  87 NE6G13    30.26S
SAVANNAH       CLOUDY    43  39  87 NE7       30.26S
$$

TNZ008-025-027-028-033-062-065-066-180800-
NORTH MIDDLE TENNESSEE

CITY           SKY/WX    TMP DP  RH WIND       PRES   REMARKS
NASHVILLE      FAIR      42  36  79 N5        30.29R
PORTLAND       PTCLDY    37  37 100 N3        30.27R
CLARKSVILLE    FOG       34  32  92 CALM      30.28S VSB 1/4
COOKEVILLE     CLOUDY    45  41  87 NW5       30.25R
GALLATIN       MOCLDY    37  36  93 CALM      30.31R
CROSSVILLE     CLOUDY    41  35  79 NW3       30.22S
$$

TNZ061-075-076-078-094-096-097-180800-
SOUTH MIDDLE TENNESSEE

CITY           SKY/WX    TMP DP  RH WIND       PRES   REMARKS
FAYETTEVILLE   CLOUDY    46  41  81 N10       30.23S
TULLAHOMA      CLOUDY    45  41  87 N13       30.24R
WINCHESTER     CLOUDY    45  41  87 N7        30.24S
MCMINNVILLE    CLOUDY    45  37  76 NW7       30.25R
COLUMBIA       MOCLDY    43  41  93 N7        30.25R
SHELBYVILLE    CLOUDY    45  41  87 N8        30.26R
$$

TNZ017-018-042-046-047-180800-
NORTHEAST TENNESSEE

CITY           SKY/WX    TMP DP  RH WIND       PRES   REMARKS
TRI CITIES     CLOUDY    47  47 100 W8        30.18R
ELIZABETHTON     N/A     46  46 100 W6G12     30.18R FOG
$$

TNZ012-013-036-069-073-074-180800-
CENTRAL EAST TENNESSEE

CITY           SKY/WX    TMP DP  RH WIND       PRES   REMARKS
KNOXVILLE      CLOUDY    47  45  93 W7        30.21R
OAK RIDGE      FAIR      44  44 100 CALM      30.23R
DOWNTOWN KNOXV MOCLDY    46  46 100 CALM      30.23R
GATLINBURG     CLOUDY    48  46  93 NW3       30.22R
MORRISTOWN     CLOUDY    46  46 100 W5        30.21R
$$

TNZ083-085-099-180800-
SOUTHEAST TENNESSEE

CITY           SKY/WX    TMP DP  RH WIND       PRES   REMARKS
CHATTANOOGA    CLOUDY    50  44  80 N12       30.23R
$$

SKY/WX REPORTED AS FAIR MEANS FEW OR NO CLOUDS BELOW
12 THOUSAND FEET.





USA.gov is the U.S. government's official web portal to all federal, state and local government web resources and services.